Flag for U.S.A. Weather past 2 weeks in Waterbury, Connecticut, U.S.A.

Now
70 °F

Sunny.


Feels Like: 70 °F
Forecast: 57 / 80 °F
Wind: 7 mph from East

Location: Oxford

Current Time: Sep 5, 2015 at 10:57:58 AM

Latest Report: Sep 5, 2015 at 9:52 AM


Visibility: 10 mi

Pressure: 30.32 "Hg

Humidity: 46%

Dew point: 48 °F

Location of WaterburyLocation

Historic Weather in Waterbury — Graph

°F

Waterbury temperature yesterday

Maximum temperature yesterday: 81 °F (at 2:52 PM)
Minimum temperature yesterday: 64 °F (at 11:55 PM)
Average temperature yesterday: 72 °F

Past Weeks' High & Low Weather Summary

 TemperatureHumidityPressure
High88 °F (Sep 2, 2:50 PM)83% (Aug 23, 8:50 AM)30.33 "Hg (Aug 23, 8:50 AM)
Low54 °F (Aug 28, 6:15 AM)15% (Sep 3, 4:50 PM)29.85 "Hg (Aug 25, 4:50 PM)
Average69 °F69%30.05 "Hg
* Reported Aug 21 9:52 AM — Sep 5 9:52 AM, Waterbury, Weather by CustomWeather, © 2015

Note: Actual official high and low records may vary slightly from our data, if they occured in-between our weather recording intervals... More about our weather records

Advertising

Waterbury weather history for previous 24 hours

 ConditionsComfort  
Time TempWeatherWind HumidityBarometerVisibility
9:52 AM
Sat, Sep 5
70 °FSunny.7 mph46%30.32 "Hg10 mi
8:52 AM64 °FSunny.6 mph60%30.33 "Hg10 mi
7:52 AM59 °FSunny.6 mph72%30.33 "Hg10 mi
6:52 AM55 °FClear.6 mph72%30.31 "Hg10 mi
5:52 AM55 °FClear.No wind77%30.29 "Hg10 mi
5:35 AM55 °FClear.No wind77%30.28 "Hg10 mi
5:15 AM55 °FClear.No wind77%30.28 "Hg10 mi
4:55 AM55 °FClear.No wind77%30.27 "Hg10 mi
4:35 AM55 °FClear.No wind77%30.26 "Hg10 mi
4:15 AM57 °FClear.3 mph77%30.26 "Hg10 mi
3:55 AM57 °FClear.No wind72%30.26 "Hg10 mi
3:35 AM57 °FClear.3 mph77%30.26 "Hg10 mi
3:15 AM61 °FClear.No wind72%30.26 "Hg10 mi
2:55 AM61 °FClear.No wind72%30.26 "Hg10 mi
2:35 AM63 °FClear.No wind68%30.27 "Hg10 mi
2:15 AM63 °FPassing clouds.3 mph68%30.27 "Hg10 mi
1:55 AM63 °FPassing clouds.No wind73%30.27 "Hg10 mi
1:35 AM63 °FPassing clouds.No wind73%30.27 "Hg10 mi
1:15 AM63 °FPassing clouds.3 mph73%30.27 "Hg10 mi
12:55 AM64 °FPassing clouds.5 mph68%30.27 "Hg10 mi
12:35 AM64 °FPassing clouds.6 mph68%30.27 "Hg10 mi
11:55 PM
Fri, Sep 4
64 °FPassing clouds.6 mph73%30.26 "Hg10 mi
11:35 PM66 °FClear.3 mph68%30.26 "Hg10 mi
11:15 PM66 °FClear.3 mph68%30.26 "Hg10 mi
10:55 PM66 °FClear.3 mph68%30.25 "Hg10 mi
10:35 PM66 °FClear.3 mph73%30.25 "Hg10 mi
10:15 PM68 °FClear.3 mph69%30.25 "Hg10 mi
9:55 PM66 °FClear.3 mph73%30.25 "Hg10 mi
9:35 PM66 °FClear.3 mph73%30.24 "Hg10 mi
9:15 PM68 °FClear.No wind73%30.23 "Hg10 mi
8:55 PM70 °FClear.No wind69%30.22 "Hg10 mi
7:50 PM72 °FSunny.No wind65%30.20 "Hg10 mi
6:50 PM79 °FSunny.No wind51%30.18 "Hg8 mi
5:50 PM81 °FPassing clouds.5 mph51%30.17 "Hg8 mi
4:50 PM81 °FScattered clouds.6 mph51%30.17 "Hg8 mi
3:55 PM81 °FScattered clouds.7 mph54%30.16 "Hg8 mi
2:52 PM81 °FBroken clouds.6 mph51%30.17 "Hg8 mi
1:55 PM79 °FBroken clouds.9 mph54%30.17 "Hg8 mi
12:52 PM77 °FScattered clouds.7 mph57%30.16 "Hg7 mi
11:52 AM75 °FPartly sunny.7 mph65%30.15 "Hg7 mi
10:52 AM73 °FPartly sunny.6 mph69%30.14 "Hg7 mi
Weather by CustomWeather, © 2015

See weather overviewHow to use our weather pages